Preview of NWS' New Version of Forecast
This preview is not operational and should not be used for support decisions.

Regional Weather Roundup (RWR)

Issued by National Weather Service (NWS)

                            
000
ASPQ40 PGUM 182210
RWRPQ 
WEATHER ROUNDUP FOR THE MARIANAS AND MICRONESIA
NATIONAL WEATHER SERVICE TIYAN GU
800 AM CHST MON AUG 19 2019

GUZ001>004-182300-
MARIANA ISLANDS-
  
CITY           SKY/WX    TMP DP  RH WIND       PRES   REMARKS
GUAM AIRPORT   MOSUNNY   81  77  89 S6        29.79R                  
ANDERSEN AFB   PTSUNNY   81  77  89 S7        29.80R                  
ROTA AIRPORT   PTSUNNY   81  72  74 SE10      29.76R                  
TINIAN AP      LGT RAIN  82  79  89 SE6       29.77R HX  93           
SAIPAN AP      PTSUNNY   82  77  83 SE16G24   29.79R HX  91           

$$

PMZ161-182300-
REPUBLIC OF PALAU-
  
CITY           SKY/WX    TMP DP  RH WIND       PRES   REMARKS
KOROR AP       PTSUNNY   79  75  89 W12       29.78R                  
KOROR WSO      NOT AVBL                                               

$$

PMZ171>174-182300-
FEDERATED STATES OF MICRONESIA-
  
CITY           SKY/WX    TMP DP  RH WIND       PRES   REMARKS
YAP AIRPORT    CLOUDY    82  75  78 VRB5      29.76R                  
CHUUK AP       CLOUDY    82  79  89 CALM      29.82R HX  93           
POHNPEI AP     LGT RAIN  84  79  84 SW6       29.82  HX  96           
POHNPEI WSO    CLOUDY    81  79  94 SW3       29.86R                  
KOSRAE AP      CLOUDY    84  77  79 W10       29.82  HX  94           

$$

PMZ181-182300-
REPUBLIC OF THE MARSHALL ISLANDS-
  
CITY           SKY/WX    TMP DP  RH WIND       PRES   REMARKS
KWAJALEIN AP   PTSUNNY   84  77  79 E5        29.83S HX  94           
MAJURO AP      NOT AVBL                                               
MAJURO WSO     PTSUNNY   82  77  83 NW3       29.82F HX  91           

$$